QPF
0.00 0.00 0.00 0.00 0.00 0.00 0.00 0.00 0.00 0.00 0.00 0.00 0.00 0.00 0.00 0.00 0.00 0.00 0.00 0.00 0.00 0.00 0.00 0.00 0.00 0.00 0.00 0.00 0.00 0.00 0.00 0.00 0.00 0.00 0.00 0.00 0.00 0.00 0.00 0.00 0.00 0.00 0.00 0.00 0.00 0.00 0.00 0.00 0.00 0.00 0.00 0.00 0.00 0.00 0.00 0.00 0.00 0.00 0.00 0.00 0.00 0.00 0.00
0.00 0.00 0.00 0.00 0.00 0.00 0.00 0.00 0.00 0.00 0.00 0.00 0.00 0.00 0.00 0.00 0.00 0.00 0.00 0.00 0.00 0.00 0.00 0.00 0.00 0.00 0.00 0.00 0.00 0.00 0.00 0.00 0.00 0.00 0.00 0.00 0.00 0.00 0.00 0.00 0.00 0.00 0.00 0.00 0.00 0.00 0.00 0.00 0.00 0.00 0.00 0.00 0.00 0.00 0.00 0.00 0.00 0.00 0.00 0.00 0.00 0.00 0.00
0.00 0.00 0.00 0.00 0.00 0.00 0.00 0.00 0.00 0.00 0.00 0.00 0.00 0.00 0.00 0.00 0.00 0.00 0.00 0.00 0.00 0.00 0.00 0.00 0.00 0.00 0.00 0.00 0.00 0.00 0.00 0.00 0.00 0.00 0.00 0.00 0.00 0.00 0.00 0.00 0.00 0.00 0.00 0.00 0.00 0.00 0.00 0.00 0.00 0.00 0.00 0.00 0.00 0.00 0.00 0.00 0.00 0.00 0.00 0.00 0.00 0.00 0.00
0.00 0.00 0.00 0.00 0.00 0.00 0.00 0.01 0.01 0.01 0.01 0.01 0.00 0.00 0.00 0.00 0.00 0.00 0.00 0.00 0.00 0.00 0.00 0.00 0.00 0.00 0.00 0.00 0.00 0.00 0.00 0.00 0.00 0.00 0.00 0.00 0.00 0.00 0.00 0.00 0.00 0.00 0.00 0.00 0.00 0.00 0.00 0.00 0.00 0.00 0.00 0.00 0.00 0.00 0.00 0.00 0.00 0.00 0.00 0.00 0.00 0.00 0.00
0.00 0.00 0.00 0.00 0.00 0.00 0.00 0.00 0.00 0.00 0.01 0.01 0.01 0.01 0.01 0.01 0.01 0.01 0.01 0.01 0.01 0.01 0.01 0.01 0.01 0.01 0.01 0.01 0.01 0.01 0.01 0.01 0.01 0.01 0.01 0.00 0.00 0.00 0.00 0.00 0.00 0.00 0.00 0.00 0.00 0.00 0.00 0.00 0.00 0.00 0.00 0.00 0.00 0.00 0.00 0.00 0.00 0.00 0.00 0.00 0.00 0.00 0.00
0.00 0.00 0.00 0.00 0.00 0.00 0.00 0.00 0.00 0.00 0.00 0.00 0.00 0.00 0.00 0.00 0.00 0.00 0.00 0.00 0.00 0.00 0.00 0.00 0.00 0.00 0.00 0.00 0.00 0.01 0.01 0.00 0.00 0.01 0.01 0.01 0.01 0.01 0.01 0.01 0.01 0.01 0.01 0.01 0.01 0.01 0.01 0.00 0.00 0.00 0.00 0.00 0.00 0.00 0.00 0.00 0.00 0.00 0.00 0.00 0.00 0.00 0.00
0.00 0.00 0.00 0.00 0.00 0.00 0.00 0.00 0.00 0.00 0.00 0.00 0.00 0.00 0.00 0.00 0.00 0.00 0.00 0.00 0.00 0.00 0.00 0.00 0.00 0.00 0.00 0.00 0.01 0.01 0.01 0.00 0.00 0.01 0.01 0.01 0.01 0.01 0.01 0.01 0.02 0.02 0.02 0.02 0.02 0.02 0.02 0.01 0.01 0.00 0.00 0.00 0.00 0.00 0.00 0.00 0.00 0.00 0.00 0.00 0.00 0.00 0.00
0.00 0.00 0.00 0.00 0.00 0.00 0.00 0.00 0.00 0.00 0.00 0.00 0.00 0.00 0.00 0.00 0.00 0.00 0.00 0.00 0.00 0.00 0.00 0.00 0.00 0.00 0.00 0.00 0.01 0.01 0.01 0.01 0.01 0.01 0.01 0.01 0.01 0.01 0.02 0.02 0.03 0.03 0.03 0.03 0.03 0.03 0.02 0.01 0.01 0.01 0.00 0.00 0.00 0.00 0.00 0.00 0.00 0.00 0.00 0.00 0.00 0.00 0.00
0.00 0.00 0.00 0.00 0.00 0.00 0.00 0.00 0.00 0.00 0.00 0.00 0.00 0.00 0.00 0.00 0.00 0.00 0.00 0.00 0.00 0.00 0.00 0.00 0.00 0.00 0.00 0.00 0.00 0.00 0.01 0.01 0.01 0.01 0.02 0.02 0.02 0.02 0.02 0.03 0.03 0.03 0.04 0.04 0.03 0.03 0.02 0.02 0.01 0.01 0.01 0.00 0.00 0.00 0.00 0.00 0.00 0.00 0.00 0.00 0.00 0.00 0.00
0.00 0.00 0.00 0.00 0.00 0.00 0.00 0.00 0.00 0.00 0.00 0.00 0.00 0.00 0.00 0.00 0.00 0.00 0.00 0.00 0.00 0.00 0.00 0.00 0.00 0.00 0.00 0.00 0.00 0.00 0.01 0.01 0.01 0.01 0.02 0.02 0.02 0.02 0.03 0.03 0.04 0.04 0.04 0.04 0.04 0.03 0.02 0.02 0.01 0.01 0.01 0.00 0.00 0.00 0.00 0.00 0.00 0.00 0.00 0.00 0.00 0.00 0.00
0.00 0.00 0.00 0.00 0.00 0.00 0.00 0.00 0.00 0.00 0.00 0.00 0.00 0.00 0.00 0.00 0.00 0.00 0.00 0.00 0.00 0.00 0.00 0.00 0.00 0.00 0.00 0.00 0.00 0.01 0.01 0.01 0.01 0.01 0.01 0.02 0.02 0.03 0.04 0.04 0.05 0.04 0.04 0.04 0.03 0.03 0.02 0.02 0.02 0.01 0.01 0.00 0.00 0.00 0.00 0.00 0.00 0.00 0.00 0.00 0.01 0.01 0.01
0.00 0.00 0.00 0.00 0.00 0.00 0.00 0.00 0.00 0.00 0.00 0.00 0.00 0.01 0.01 0.00 0.00 0.00 0.00 0.00 0.00 0.00 0.00 0.00 0.00 0.00 0.00 0.00 0.00 0.00 0.01 0.01 0.01 0.02 0.02 0.03 0.03 0.03 0.04 0.04 0.05 0.05 0.04 0.03 0.03 0.03 0.02 0.02 0.01 0.01 0.01 0.00 0.00 0.00 0.00 0.00 0.00 0.01 0.01 0.01 0.01 0.01 0.01
0.00 0.00 0.00 0.00 0.00 0.00 0.00 0.00 0.00 0.00 0.00 0.00 0.00 0.03 0.01 0.00 0.00 0.00 0.00 0.00 0.00 0.00 0.00 0.00 0.00 0.00 0.00 0.00 0.00 0.00 0.01 0.02 0.02 0.02 0.03 0.03 0.04 0.04 0.04 0.05 0.05 0.04 0.03 0.03 0.03 0.03 0.03 0.02 0.01 0.01 0.01 0.00 0.00 0.00 0.00 0.00 0.01 0.01 0.02 0.02 0.02 0.01 0.01
0.00 0.00 0.00 0.00 0.00 0.00 0.00 0.00 0.00 0.00 0.00 0.00 0.00 0.01 0.02 0.00 0.00 0.00 0.00 0.00 0.00 0.00 0.00 0.00 0.00 0.00 0.00 0.00 0.00 0.00 0.00 0.01 0.02 0.02 0.03 0.03 0.04 0.05 0.05 0.04 0.04 0.04 0.04 0.04 0.04 0.04 0.04 0.02 0.01 0.01 0.01 0.00 0.00 0.01 0.01 0.01 0.02 0.02 0.03 0.02 0.02 0.01 0.01
0.00 0.00 0.00 0.00 0.00 0.00 0.00 0.00 0.00 0.00 0.00 0.00 0.00 0.00 0.01 0.00 0.00 0.00 0.00 0.00 0.00 0.00 0.00 0.00 0.00 0.00 0.00 0.00 0.00 0.00 0.00 0.01 0.01 0.02 0.02 0.03 0.03 0.03 0.03 0.04 0.04 0.04 0.04 0.05 0.06 0.05 0.04 0.03 0.02 0.01 0.01 0.01 0.01 0.02 0.02 0.02 0.02 0.02 0.03 0.03 0.03 0.02 0.02
0.00 0.00 0.00 0.00 0.00 0.00 0.00 0.00 0.00 0.00 0.00 0.00 0.00 0.00 0.00 0.00 0.00 0.00 0.00 0.00 0.00 0.00 0.00 0.00 0.00 0.00 0.00 0.00 0.00 0.00 0.00 0.01 0.02 0.03 0.03 0.03 0.02 0.02 0.02 0.03 0.03 0.02 0.02 0.03 0.04 0.05 0.05 0.04 0.02 0.02 0.02 0.02 0.02 0.03 0.03 0.03 0.02 0.03 0.04 0.05 0.06 0.05 0.03
0.00 0.00 0.00 0.00 0.00 0.00 0.00 0.00 0.00 0.00 0.00 0.00 0.00 0.00 0.00 0.00 0.00 0.00 0.00 0.00 0.00 0.00 0.00 0.00 0.00 0.00 0.00 0.00 0.00 0.00 0.00 0.01 0.02 0.04 0.03 0.03 0.03 0.02 0.02 0.02 0.02 0.01 0.03 0.06 0.09 0.11 0.11 0.07 0.06 0.04 0.03 0.03 0.03 0.03 0.03 0.03 0.05 0.06 0.05 0.05 0.05 0.03 0.02
0.00 0.00 0.00 0.00 0.00 0.00 0.00 0.00 0.00 0.00 0.00 0.00 0.00 0.00 0.00 0.00 0.00 0.00 0.00 0.00 0.00 0.00 0.00 0.00 0.00 0.00 0.00 0.00 0.00 0.00 0.00 0.01 0.02 0.03 0.03 0.03 0.03 0.02 0.02 0.02 0.01 0.01 0.01 0.01 0.03 0.06 0.08 0.10 0.07 0.07 0.07 0.09 0.08 0.05 0.03 0.03 0.05 0.05 0.04 0.04 0.03 0.02 0.01
0.00 0.00 0.00 0.00 0.00 0.00 0.00 0.00 0.00 0.00 0.00 0.00 0.00 0.00 0.00 0.01 0.00 0.00 0.00 0.00 0.01 0.00 0.00 0.00 0.00 0.00 0.00 0.00 0.00 0.00 0.00 0.01 0.01 0.02 0.03 0.03 0.03 0.03 0.02 0.02 0.01 0.01 0.02 0.01 0.01 0.02 0.02 0.04 0.05 0.06 0.08 0.08 0.07 0.08 0.05 0.03 0.03 0.02 0.02 0.03 0.02 0.02 0.01
0.00 0.00 0.00 0.00 0.00 0.00 0.00 0.00 0.00 0.00 0.00 0.00 0.00 0.00 0.01 0.01 0.00 0.00 0.01 0.01 0.01 0.00 0.00 0.00 0.00 0.00 0.00 0.00 0.00 0.00 0.00 0.01 0.02 0.02 0.03 0.03 0.04 0.05 0.03 0.02 0.01 0.01 0.01 0.02 0.01 0.01 0.01 0.02 0.02 0.03 0.04 0.06 0.08 0.08 0.08 0.04 0.01 0.02 0.02 0.03 0.02 0.02 0.02
0.00 0.00 0.00 0.00 0.00 0.00 0.00 0.00 0.00 0.00 0.00 0.00 0.00 0.00 0.00 0.00 0.01 0.00 0.02 0.01 0.01 0.00 0.00 0.00 0.00 0.00 0.00 0.00 0.00 0.00 0.01 0.01 0.03 0.03 0.03 0.02 0.05 0.07 0.05 0.02 0.01 0.01 0.01 0.01 0.01 0.01 0.01 0.01 0.02 0.02 0.03 0.05 0.06 0.07 0.08 0.08 0.03 0.01 0.02 0.02 0.03 0.03 0.03
0.00 0.00 0.00 0.00 0.00 0.00 0.00 0.00 0.00 0.00 0.00 0.00 0.00 0.00 0.00 0.00 0.01 0.01 0.02 0.01 0.00 0.00 0.00 0.00 0.00 0.00 0.00 0.00 0.01 0.01 0.02 0.03 0.03 0.02 0.00 0.01 0.02 0.02 0.01 0.01 0.01 0.01 0.01 0.01 0.01 0.02 0.02 0.02 0.02 0.02 0.03 0.04 0.05 0.05 0.06 0.07 0.06 0.03 0.01 0.01 0.01 0.02 0.03
0.00 0.00 0.00 0.00 0.00 0.00 0.00 0.00 0.00 0.00 0.00 0.00 0.00 0.00 0.00 0.01 0.01 0.01 0.01 0.00 0.00 0.00 0.00 0.00 0.00 0.00 0.00 0.01 0.01 0.01 0.01 0.00 0.00 0.00 0.00 0.00 0.00 0.00 0.00 0.00 0.01 0.01 0.01 0.01 0.01 0.01 0.02 0.02 0.01 0.02 0.02 0.02 0.03 0.03 0.03 0.05 0.05 0.03 0.01 0.00 0.00 0.01 0.01
0.00 0.00 0.00 0.00 0.00 0.00 0.00 0.00 0.00 0.00 0.00 0.00 0.00 0.00 0.00 0.01 0.02 0.01 0.00 0.00 0.00 0.00 0.00 0.00 0.00 0.00 0.00 0.00 0.00 0.00 0.00 0.00 0.00 0.00 0.00 0.00 0.00 0.00 0.00 0.00 0.00 0.00 0.01 0.01 0.01 0.01 0.01 0.01 0.01 0.01 0.02 0.02 0.02 0.02 0.02 0.03 0.04 0.03 0.02 0.01 0.00 0.00 0.01
0.00 0.00 0.00 0.00 0.00 0.00 0.00 0.00 0.00 0.00 0.00 0.00 0.00 0.00 0.01 0.01 0.01 0.00 0.00 0.00 0.00 0.00 0.00 0.00 0.00 0.00 0.00 0.00 0.00 0.00 0.00 0.00 0.00 0.00 0.00 0.00 0.00 0.00 0.00 0.00 0.00 0.00 0.00 0.01 0.01 0.02 0.01 0.01 0.01 0.01 0.01 0.01 0.02 0.02 0.03 0.03 0.05 0.05 0.03 0.02 0.01 0.00 0.00
0.00 0.00 0.00 0.00 0.00 0.00 0.00 0.00 0.00 0.00 0.00 0.00 0.00 0.01 0.01 0.00 0.01 0.00 0.00 0.00 0.00 0.00 0.00 0.00 0.00 0.00 0.00 0.00 0.00 0.00 0.00 0.00 0.00 0.00 0.00 0.00 0.00 0.00 0.00 0.00 0.00 0.00 0.00 0.00 0.00 0.01 0.01 0.01 0.01 0.01 0.01 0.01 0.01 0.01 0.03 0.03 0.05 0.07 0.08 0.06 0.04 0.03 0.02
0.00 0.01 0.00 0.00 0.00 0.00 0.00 0.00 0.00 0.00 0.00 0.00 0.01 0.02 0.01 0.00 0.01 0.00 0.00 0.00 0.00 0.00 0.00 0.00 0.00 0.00 0.00 0.00 0.00 0.00 0.00 0.00 0.00 0.00 0.00 0.00 0.00 0.00 0.00 0.00 0.00 0.00 0.00 0.00 0.00 0.00 0.00 0.01 0.01 0.01 0.01 0.01 0.00 0.01 0.01 0.01 0.02 0.03 0.04 0.05 0.04 0.03 0.03
0.01 0.01 0.00 0.00 0.00 0.00 0.00 0.00 0.00 0.00 0.00 0.01 0.02 0.02 0.01 0.01 0.01 0.01 0.00 0.00 0.00 0.00 0.00 0.00 0.00 0.00 0.00 0.00 0.00 0.00 0.00 0.00 0.00 0.00 0.00 0.00 0.00 0.00 0.00 0.00 0.00 0.00 0.00 0.00 0.00 0.00 0.00 0.00 0.00 0.00 0.01 0.01 0.01 0.01 0.00 0.00 0.01 0.02 0.02 0.03 0.04 0.05 0.04
0.01 0.01 0.00 0.00 0.00 0.00 0.00 0.00 0.00 0.00 0.01 0.02 0.02 0.03 0.01 0.01 0.02 0.01 0.00 0.00 0.00 0.00 0.00 0.00 0.00 0.00 0.00 0.00 0.00 0.00 0.00 0.00 0.00 0.00 0.00 0.00 0.00 0.00 0.00 0.00 0.00 0.00 0.00 0.00 0.00 0.00 0.00 0.00 0.00 0.00 0.00 0.00 0.01 0.01 0.01 0.00 0.01 0.01 0.02 0.02 0.03 0.03 0.03
0.01 0.02 0.01 0.00 0.00 0.00 0.01 0.00 0.00 0.00 0.01 0.02 0.02 0.02 0.01 0.01 0.02 0.00 0.00 0.00 0.00 0.00 0.00 0.00 0.00 0.00 0.00 0.00 0.00 0.00 0.00 0.00 0.00 0.00 0.00 0.00 0.00 0.00 0.00 0.00 0.00 0.00 0.00 0.00 0.00 0.00 0.00 0.00 0.00 0.00 0.00 0.00 0.01 0.01 0.01 0.01 0.01 0.01 0.01 0.02 0.02 0.02 0.02
0.01 0.01 0.01 0.00 0.00 0.00 0.00 0.00 0.00 0.00 0.01 0.02 0.02 0.02 0.00 0.01 0.01 0.01 0.00 0.00 0.00 0.00 0.00 0.00 0.00 0.00 0.00 0.00 0.00 0.00 0.00 0.00 0.00 0.00 0.00 0.00 0.00 0.00 0.00 0.00 0.00 0.00 0.00 0.00 0.00 0.00 0.00 0.00 0.00 0.00 0.00 0.01 0.00 0.01 0.01 0.01 0.01 0.01 0.01 0.01 0.01 0.01 0.01
0.01 0.01 0.01 0.00 0.01 0.01 0.00 0.00 0.00 0.00 0.01 0.02 0.01 0.02 0.00 0.01 0.02 0.00 0.00 0.00 0.00 0.00 0.00 0.00 0.00 0.00 0.00 0.00 0.00 0.00 0.00 0.00 0.00 0.00 0.00 0.00 0.00 0.00 0.00 0.00 0.00 0.00 0.00 0.00 0.00 0.00 0.00 0.00 0.00 0.00 0.00 0.00 0.00 0.00 0.01 0.01 0.01 0.01 0.01 0.01 0.01 0.01 0.01
0.00 0.00 0.00 0.00 0.01 0.01 0.01 0.01 0.01 0.01 0.01 0.01 0.02 0.01 0.00 0.00 0.00 0.00 0.00 0.00 0.00 0.00 0.00 0.00 0.00 0.00 0.00 0.00 0.00 0.00 0.00 0.00 0.00 0.00 0.00 0.00 0.00 0.00 0.00 0.00 0.00 0.00 0.00 0.00 0.00 0.00 0.00 0.00 0.00 0.00 0.00 0.00 0.00 0.00 0.01 0.01 0.01 0.01 0.01 0.01 0.01 0.01 0.01
0.00 0.00 0.00 0.00 0.00 0.00 0.00 0.00 0.00 0.00 0.00 0.01 0.00 0.00 0.00 0.00 0.00 0.00 0.00 0.00 0.00 0.00 0.00 0.00 0.00 0.00 0.00 0.00 0.00 0.00 0.00 0.00 0.00 0.00 0.00 0.00 0.00 0.00 0.00 0.00 0.00 0.00 0.00 0.00 0.00 0.00 0.00 0.00 0.00 0.00 0.00 0.00 0.00 0.00 0.01 0.01 0.01 0.01 0.01 0.02 0.01 0.01 0.01
0.00 0.00 0.00 0.00 0.00 0.00 0.00 0.00 0.00 0.00 0.00 0.00 0.00 0.00 0.00 0.00 0.00 0.00 0.00 0.00 0.00 0.00 0.00 0.00 0.00 0.00 0.00 0.00 0.00 0.00 0.00 0.00 0.00 0.00 0.00 0.00 0.00 0.00 0.00 0.00 0.00 0.00 0.00 0.00 0.00 0.00 0.00 0.00 0.00 0.00 0.00 0.00 0.00 0.00 0.00 0.00 0.01 0.01 0.01 0.02 0.02 0.02 0.02
0.00 0.00 0.00 0.00 0.00 0.00 0.00 0.00 0.00 0.00 0.00 0.00 0.00 0.00 0.00 0.00 0.00 0.00 0.00 0.00 0.00 0.00 0.00 0.00 0.00 0.00 0.00 0.00 0.00 0.00 0.00 0.00 0.00 0.00 0.00 0.00 0.00 0.00 0.00 0.00 0.00 0.00 0.00 0.00 0.00 0.00 0.00 0.00 0.00 0.00 0.00 0.00 0.00 0.00 0.00 0.00 0.01 0.01 0.01 0.01 0.02 0.02 0.02
MSLP
1020.08 1019.80 1019.56 1019.24 1018.92 1018.64 1018.44 1018.20 1018.08 1017.96 1017.88 1017.76 1017.68 1017.60 1017.56 1017.56 1017.56 1017.52 1017.44 1017.44 1017.40 1017.44 1017.56 1017.64 1017.64 1017.64 1017.72 1017.88 1017.96 1017.84 1017.88 1017.96 1018.04 1018.24 1018.24 1018.28 1018.36 1018.40 1018.36 1018.52 1018.56 1018.28 1017.48 1017.04 1017.40 1017.32 1017.08 1017.44 1017.80 1018.04 1018.20 1018.56 1018.84 1019.20 1019.48 1019.80 1019.88 1019.96 1020.16 1020.28 1020.40 1020.60 1020.84
1020.48 1020.24 1020.00 1019.68 1019.32 1019.04 1018.80 1018.60 1018.36 1018.12 1017.88 1017.72 1017.60 1017.48 1017.44 1017.40 1017.40 1017.36 1017.24 1017.20 1017.12 1017.08 1017.16 1017.24 1017.24 1017.20 1017.36 1017.52 1017.64 1017.56 1017.60 1017.68 1017.80 1017.88 1017.88 1017.88 1017.96 1017.92 1017.96 1018.04 1018.28 1018.04 1017.80 1017.20 1017.20 1017.20 1017.24 1017.28 1017.48 1017.52 1017.72 1018.12 1018.36 1018.76 1019.08 1019.40 1019.52 1019.60 1019.68 1019.72 1019.88 1020.04 1020.08
1020.76 1020.52 1020.28 1020.00 1019.68 1019.44 1019.20 1018.92 1018.68 1018.40 1018.12 1017.88 1017.64 1017.52 1017.40 1017.28 1017.28 1017.20 1017.08 1017.00 1016.88 1016.84 1016.92 1016.92 1016.88 1016.84 1017.04 1017.20 1017.32 1017.28 1017.28 1017.40 1017.48 1017.52 1017.52 1017.48 1017.52 1017.60 1017.56 1017.64 1017.76 1017.84 1017.68 1017.36 1016.96 1017.12 1017.12 1017.12 1017.28 1017.16 1017.20 1017.56 1017.88 1018.16 1018.48 1018.84 1019.04 1019.12 1019.24 1019.32 1019.40 1019.48 1019.52
1020.96 1020.68 1020.44 1020.08 1019.80 1019.56 1019.28 1019.12 1018.92 1018.76 1018.56 1018.32 1018.08 1017.76 1017.48 1017.32 1017.20 1017.08 1016.92 1016.84 1016.72 1016.68 1016.68 1016.64 1016.60 1016.52 1016.68 1016.92 1017.04 1017.04 1017.04 1017.04 1017.16 1017.20 1017.24 1017.28 1017.24 1017.28 1017.24 1017.28 1017.40 1017.32 1017.28 1017.16 1017.12 1016.72 1016.76 1016.68 1016.92 1016.88 1016.80 1017.08 1017.48 1017.76 1018.12 1018.28 1018.56 1018.80 1018.88 1018.92 1019.12 1019.16 1019.12
1020.92 1020.72 1020.40 1020.12 1019.88 1019.68 1019.48 1019.32 1019.16 1019.08 1018.92 1018.72 1018.48 1018.24 1017.92 1017.52 1017.20 1016.96 1016.80 1016.68 1016.60 1016.56 1016.56 1016.48 1016.32 1016.28 1016.44 1016.60 1016.68 1016.64 1016.60 1016.68 1016.84 1017.00 1017.04 1017.00 1016.92 1016.92 1016.92 1017.04 1017.12 1017.04 1017.04 1017.08 1016.92 1016.60 1016.52 1016.60 1016.48 1016.60 1016.64 1016.68 1017.12 1017.52 1017.84 1018.08 1018.20 1018.32 1018.48 1018.72 1018.76 1018.92 1018.88
1021.16 1020.92 1020.60 1020.40 1020.16 1019.96 1019.84 1019.64 1019.48 1019.28 1019.04 1018.72 1018.40 1018.08 1017.80 1017.56 1017.28 1017.00 1016.76 1016.60 1016.44 1016.36 1016.24 1016.08 1016.00 1015.96 1016.08 1016.20 1016.28 1016.20 1016.16 1016.32 1016.48 1016.72 1016.80 1016.80 1016.76 1016.72 1016.76 1016.84 1016.92 1016.92 1016.92 1016.92 1016.84 1016.76 1016.76 1016.64 1016.52 1016.52 1016.52 1016.40 1016.64 1016.96 1017.36 1017.76 1017.96 1018.12 1018.20 1018.44 1018.64 1018.68 1018.72
1021.60 1021.32 1021.04 1020.84 1020.56 1020.40 1020.12 1019.88 1019.56 1019.24 1018.92 1018.64 1018.32 1018.08 1017.84 1017.56 1017.24 1016.96 1016.80 1016.64 1016.48 1016.28 1016.08 1015.96 1015.84 1015.76 1015.80 1015.92 1015.92 1015.88 1015.88 1015.92 1016.08 1016.20 1016.28 1016.32 1016.36 1016.48 1016.60 1016.68 1016.72 1016.80 1016.88 1016.88 1016.88 1016.80 1016.72 1016.68 1016.44 1016.52 1016.40 1016.28 1016.48 1016.56 1016.60 1017.00 1017.48 1017.84 1017.96 1018.16 1018.24 1018.40 1018.52
1021.84 1021.60 1021.32 1021.12 1020.88 1020.60 1020.32 1020.08 1019.76 1019.40 1019.12 1018.88 1018.64 1018.24 1017.88 1017.56 1017.28 1017.08 1016.88 1016.68 1016.48 1016.28 1016.12 1016.00 1015.88 1015.72 1015.64 1015.64 1015.68 1015.64 1015.52 1015.60 1015.68 1015.72 1015.80 1015.80 1015.92 1016.04 1016.20 1016.28 1016.32 1016.52 1016.68 1016.72 1016.72 1016.60 1016.48 1016.32 1016.32 1016.20 1016.12 1016.20 1016.40 1016.64 1016.40 1016.24 1016.40 1016.88 1017.40 1017.68 1017.88 1018.00 1018.20
1021.92 1021.72 1021.56 1021.28 1021.08 1020.84 1020.64 1020.44 1020.16 1019.84 1019.68 1019.36 1018.72 1018.24 1017.96 1017.68 1017.40 1017.20 1016.96 1016.72 1016.48 1016.24 1016.12 1016.00 1015.88 1015.76 1015.64 1015.56 1015.48 1015.40 1015.32 1015.24 1015.28 1015.36 1015.32 1015.24 1015.40 1015.64 1015.76 1015.84 1015.92 1016.04 1016.24 1016.28 1016.32 1016.28 1016.12 1016.08 1015.96 1015.68 1015.80 1015.80 1015.80 1015.80 1015.64 1015.88 1016.24 1016.40 1016.40 1016.96 1017.68 1017.96 1018.04
1022.28 1022.12 1021.92 1021.76 1021.52 1021.32 1021.08 1020.84 1020.56 1020.32 1019.84 1019.12 1018.56 1018.20 1017.88 1017.60 1017.36 1017.20 1017.04 1016.84 1016.68 1016.48 1016.32 1016.12 1015.96 1015.84 1015.72 1015.60 1015.52 1015.40 1015.28 1015.16 1015.08 1015.04 1015.04 1014.96 1015.00 1015.16 1015.32 1015.40 1015.56 1015.68 1015.72 1015.80 1015.84 1015.72 1015.68 1015.64 1015.44 1015.16 1015.08 1015.12 1014.88 1015.20 1015.60 1015.88 1016.04 1016.36 1016.44 1017.12 1017.64 1017.88 1017.88
1022.64 1022.40 1022.20 1022.08 1021.96 1021.80 1021.40 1021.08 1020.80 1020.36 1019.64 1019.00 1018.56 1018.08 1017.96 1018.00 1017.96 1017.76 1017.48 1017.32 1017.32 1017.16 1016.84 1016.64 1016.48 1016.28 1016.04 1015.84 1015.64 1015.44 1015.28 1015.12 1014.96 1014.88 1014.80 1014.72 1014.68 1014.68 1014.76 1014.96 1015.04 1015.04 1015.12 1015.16 1015.12 1015.04 1015.08 1015.00 1014.88 1014.44 1014.48 1014.52 1014.56 1014.68 1015.08 1015.16 1015.44 1015.84 1016.36 1016.80 1017.52 1017.72 1017.48
1022.80 1022.68 1022.44 1022.28 1022.16 1021.96 1021.56 1021.20 1020.88 1020.36 1019.68 1019.08 1018.64 1018.20 1018.32 1018.12 1018.16 1017.96 1017.72 1017.68 1017.72 1017.52 1017.32 1017.12 1016.88 1016.76 1016.56 1016.36 1016.16 1015.92 1015.60 1015.32 1015.08 1014.88 1014.68 1014.52 1014.36 1014.28 1014.24 1014.24 1014.28 1014.36 1014.44 1014.44 1014.52 1014.44 1014.24 1014.32 1014.04 1013.92 1013.92 1014.04 1014.24 1014.28 1014.68 1014.96 1015.16 1015.40 1015.84 1016.08 1016.52 1016.52 1016.48
1022.92 1022.76 1022.64 1022.52 1022.32 1022.04 1021.68 1021.44 1021.04 1020.40 1019.72 1019.20 1018.72 1018.28 1018.40 1018.32 1018.40 1018.16 1018.08 1018.12 1018.04 1017.92 1017.72 1017.44 1017.16 1016.88 1016.68 1016.48 1016.32 1016.08 1015.88 1015.72 1015.40 1015.08 1014.80 1014.52 1014.24 1014.00 1013.80 1013.68 1013.56 1013.56 1013.56 1013.60 1013.60 1013.64 1013.56 1013.36 1013.40 1013.52 1013.36 1013.40 1013.64 1013.96 1014.56 1015.00 1015.08 1015.16 1015.32 1015.48 1015.80 1015.80 1015.76
1022.92 1022.80 1022.76 1022.64 1022.44 1022.12 1021.88 1021.64 1021.12 1020.40 1019.80 1019.28 1018.80 1018.36 1018.40 1018.60 1018.52 1018.36 1018.36 1018.28 1018.16 1018.04 1017.84 1017.68 1017.44 1017.12 1016.84 1016.60 1016.52 1016.24 1016.04 1015.80 1015.44 1015.04 1014.72 1014.44 1014.16 1013.88 1013.56 1013.36 1013.16 1013.04 1012.96 1012.96 1012.88 1012.84 1012.72 1012.64 1012.80 1012.76 1012.76 1012.84 1013.36 1013.80 1014.00 1014.36 1014.56 1014.80 1015.28 1015.48 1015.20 1015.12 1015.36
1022.88 1022.84 1022.84 1022.76 1022.56 1022.28 1022.00 1021.68 1021.00 1020.44 1019.84 1019.32 1018.88 1018.44 1018.40 1018.60 1018.52 1018.36 1018.36 1018.32 1018.24 1018.16 1017.96 1017.80 1017.68 1017.56 1017.32 1017.16 1016.96 1016.64 1016.32 1015.92 1015.44 1014.96 1014.60 1014.28 1014.00 1013.76 1013.52 1013.24 1013.04 1012.76 1012.60 1012.40 1012.32 1012.28 1012.12 1012.08 1012.24 1012.32 1012.40 1012.60 1012.92 1013.16 1013.24 1013.28 1013.56 1013.92 1014.32 1014.64 1014.80 1015.20 1015.48
1022.88 1022.84 1022.84 1022.80 1022.68 1022.44 1022.08 1021.68 1021.16 1020.60 1019.96 1019.48 1019.04 1018.72 1018.64 1018.56 1018.52 1018.48 1018.48 1018.40 1018.20 1018.12 1017.84 1017.92 1017.96 1017.84 1017.68 1017.56 1017.36 1017.04 1016.56 1016.00 1015.36 1014.96 1014.60 1014.16 1013.76 1013.48 1013.24 1012.96 1012.72 1012.48 1012.32 1012.16 1012.04 1011.84 1011.76 1011.68 1011.64 1011.76 1012.00 1012.16 1012.32 1012.64 1012.96 1013.28 1013.52 1013.96 1014.48 1015.00 1015.32 1015.24 1015.36
1022.88 1022.76 1022.80 1022.84 1022.72 1022.52 1022.12 1021.84 1021.48 1020.76 1020.16 1019.68 1019.28 1019.04 1018.96 1018.76 1018.56 1018.52 1018.52 1018.32 1018.20 1018.00 1018.00 1018.16 1018.16 1018.08 1017.92 1017.76 1017.52 1017.16 1016.56 1015.96 1015.48 1015.12 1014.80 1014.32 1013.84 1013.32 1012.92 1012.56 1012.36 1012.20 1012.04 1011.80 1011.52 1011.36 1011.24 1011.12 1011.00 1011.00 1011.16 1011.36 1011.60 1011.88 1012.36 1012.96 1013.56 1013.84 1013.88 1014.40 1015.04 1014.92 1014.84
1022.88 1022.76 1022.64 1022.84 1022.84 1022.60 1022.40 1022.08 1021.72 1021.08 1020.40 1019.92 1019.52 1019.24 1019.12 1018.88 1018.68 1018.64 1018.48 1018.24 1018.16 1018.20 1018.16 1018.16 1018.16 1018.08 1018.00 1017.80 1017.52 1016.92 1016.32 1015.84 1015.48 1015.16 1014.76 1014.32 1013.80 1013.40 1012.96 1012.36 1012.04 1011.88 1011.68 1011.48 1011.36 1011.20 1011.00 1010.84 1010.80 1010.72 1010.60 1010.56 1010.68 1011.08 1011.48 1012.12 1012.60 1012.68 1013.12 1013.88 1013.84 1014.04 1013.88
1022.88 1022.88 1022.60 1022.68 1022.80 1022.60 1022.48 1022.28 1021.84 1021.36 1020.68 1020.20 1019.80 1019.44 1019.24 1019.08 1018.92 1018.80 1018.56 1018.28 1018.40 1018.36 1018.20 1018.16 1018.12 1018.08 1018.04 1017.84 1017.36 1016.76 1016.20 1015.68 1015.24 1014.92 1014.44 1014.20 1013.80 1013.36 1013.20 1013.08 1013.16 1012.64 1011.88 1011.44 1011.24 1011.08 1011.00 1010.84 1010.68 1010.56 1010.52 1010.44 1010.36 1010.48 1010.76 1010.92 1011.32 1011.88 1012.28 1013.04 1013.00 1013.16 1013.60
1023.00 1023.04 1022.72 1022.60 1022.60 1022.56 1022.44 1022.32 1022.00 1021.72 1021.00 1020.56 1020.12 1019.72 1019.44 1019.32 1019.12 1018.92 1018.60 1018.64 1018.72 1018.52 1018.40 1018.36 1018.28 1018.12 1018.08 1017.80 1017.28 1016.68 1016.04 1015.48 1015.16 1015.24 1015.24 1014.88 1014.40 1014.08 1014.00 1013.64 1013.48 1013.12 1012.80 1012.24 1011.48 1010.96 1010.76 1010.64 1010.48 1010.40 1010.28 1010.24 1010.24 1010.12 1010.24 1010.48 1010.60 1011.00 1011.36 1011.92 1012.28 1012.32 1012.52
1023.28 1023.00 1022.72 1022.44 1022.52 1022.44 1022.44 1022.32 1022.20 1021.96 1021.44 1020.92 1020.44 1020.00 1019.64 1019.44 1019.28 1018.92 1018.64 1018.96 1018.96 1018.84 1018.80 1018.80 1018.68 1018.52 1018.32 1018.08 1017.48 1016.84 1016.32 1015.96 1015.76 1015.64 1015.52 1015.32 1015.04 1014.76 1014.44 1014.12 1013.80 1013.24 1012.92 1012.52 1011.88 1011.20 1010.72 1010.48 1010.28 1010.20 1010.12 1010.04 1009.96 1009.88 1009.84 1010.04 1010.24 1010.32 1010.56 1011.04 1011.52 1011.92 1012.24
1023.20 1022.88 1022.64 1022.40 1022.32 1022.36 1022.44 1022.28 1022.28 1022.12 1021.72 1021.16 1020.64 1020.20 1019.76 1019.48 1019.08 1019.00 1019.36 1019.32 1019.36 1019.40 1019.40 1019.32 1019.12 1018.92 1018.64 1018.40 1017.80 1017.28 1016.88 1016.56 1016.32 1016.12 1016.00 1015.68 1015.28 1015.00 1014.76 1014.56 1014.04 1013.48 1012.96 1012.48 1012.04 1011.56 1010.88 1010.32 1010.08 1009.92 1009.84 1009.76 1009.72 1009.64 1009.60 1009.72 1010.04 1010.12 1010.16 1010.32 1010.52 1010.88 1011.44
1023.20 1022.96 1022.60 1022.48 1022.16 1022.24 1022.36 1022.36 1022.24 1022.20 1021.88 1021.40 1020.92 1020.40 1019.88 1019.32 1019.48 1019.68 1019.72 1019.92 1020.04 1020.04 1019.96 1019.80 1019.72 1019.36 1019.04 1018.52 1017.96 1017.64 1017.32 1017.00 1016.84 1016.72 1016.44 1015.96 1015.68 1015.48 1015.20 1014.68 1014.08 1013.60 1013.16 1012.68 1012.24 1011.84 1011.44 1010.84 1010.28 1009.92 1009.68 1009.56 1009.52 1009.44 1009.44 1009.56 1009.72 1009.80 1009.96 1010.08 1010.20 1010.36 1010.48
1022.60 1022.40 1022.40 1022.40 1022.28 1022.24 1022.28 1022.20 1022.20 1022.24 1021.96 1021.64 1021.20 1020.56 1020.00 1019.72 1019.96 1020.08 1020.52 1020.48 1020.56 1020.60 1020.60 1020.40 1020.12 1019.52 1019.00 1018.60 1018.32 1018.00 1017.68 1017.44 1017.44 1017.16 1016.76 1016.56 1016.36 1015.96 1015.40 1015.00 1014.48 1014.04 1013.56 1013.04 1012.52 1012.04 1011.56 1011.12 1010.68 1010.28 1009.88 1009.64 1009.44 1009.32 1009.32 1009.32 1009.40 1009.56 1009.72 1009.84 1009.88 1010.08 1010.36
1022.44 1022.36 1022.28 1022.44 1022.52 1022.48 1022.44 1022.36 1022.36 1022.32 1021.96 1021.72 1021.36 1020.72 1020.40 1020.28 1020.68 1020.84 1021.04 1021.00 1020.96 1021.08 1021.00 1020.80 1020.12 1019.76 1019.48 1019.24 1018.88 1018.56 1018.28 1018.04 1017.88 1017.64 1017.40 1017.12 1016.72 1016.28 1015.76 1015.44 1015.08 1014.68 1014.12 1013.64 1013.00 1012.32 1011.80 1011.36 1011.00 1010.64 1010.28 1010.00 1009.84 1009.68 1009.56 1009.52 1009.36 1009.40 1009.48 1009.52 1009.68 1009.84 1010.00
1022.72 1022.48 1022.44 1022.68 1022.68 1022.76 1022.72 1022.52 1022.48 1022.36 1022.04 1021.68 1021.12 1020.88 1021.00 1020.68 1021.32 1021.36 1021.44 1021.48 1021.32 1021.40 1021.28 1020.96 1020.60 1020.36 1020.04 1019.72 1019.40 1019.00 1018.72 1018.52 1018.24 1018.00 1017.68 1017.44 1017.04 1016.72 1016.40 1016.08 1015.76 1015.40 1015.00 1014.52 1013.96 1013.52 1012.92 1012.24 1011.60 1011.16 1010.76 1010.44 1010.12 1009.92 1009.80 1009.64 1009.64 1009.60 1009.68 1009.72 1009.84 1010.04 1010.16
1022.88 1022.60 1022.68 1022.92 1022.92 1022.92 1022.80 1022.48 1022.60 1022.52 1022.16 1021.72 1020.96 1021.20 1021.24 1020.92 1021.48 1021.76 1021.68 1021.60 1021.52 1021.60 1021.40 1021.12 1020.88 1020.64 1020.36 1020.12 1019.76 1019.40 1019.12 1018.92 1018.56 1018.20 1017.96 1017.76 1017.44 1017.24 1016.96 1016.68 1016.44 1016.12 1015.68 1015.24 1014.92 1014.56 1014.08 1013.48 1012.88 1012.16 1011.56 1011.00 1010.28 1009.96 1009.80 1009.68 1009.64 1009.64 1009.72 1009.64 1009.72 1009.84 1009.96
1022.96 1022.84 1023.08 1023.12 1023.12 1023.04 1022.80 1022.60 1022.80 1022.76 1022.48 1021.76 1021.24 1021.60 1021.40 1021.32 1022.00 1022.24 1022.12 1022.08 1022.08 1021.96 1021.72 1021.44 1021.04 1020.80 1020.48 1020.24 1019.92 1019.56 1019.36 1019.20 1019.00 1018.76 1018.56 1018.40 1018.04 1017.72 1017.48 1017.24 1016.92 1016.56 1016.12 1015.92 1015.60 1015.16 1014.44 1013.92 1013.40 1012.88 1012.16 1011.48 1010.92 1010.24 1009.80 1009.68 1009.68 1009.60 1009.64 1009.64 1009.84 1009.80 1009.80
1022.84 1023.12 1023.40 1023.48 1023.36 1023.28 1022.96 1023.04 1023.16 1023.04 1022.64 1021.68 1021.64 1021.92 1021.80 1021.68 1022.28 1022.72 1022.56 1022.60 1022.52 1022.16 1021.76 1021.48 1021.20 1021.00 1020.80 1020.52 1020.28 1020.00 1019.80 1019.64 1019.44 1019.20 1019.08 1018.88 1018.56 1018.12 1017.80 1017.52 1017.28 1016.92 1016.68 1016.48 1016.04 1015.44 1014.84 1014.52 1013.88 1013.40 1012.76 1012.24 1011.64 1011.04 1010.24 1009.64 1009.56 1009.44 1009.44 1009.48 1009.64 1009.76 1009.52
1023.20 1023.44 1023.68 1023.60 1023.60 1023.52 1023.68 1023.72 1023.68 1023.32 1022.28 1021.80 1022.00 1022.24 1022.12 1022.08 1022.36 1023.00 1023.08 1022.92 1022.64 1022.44 1022.04 1021.72 1021.60 1021.40 1021.32 1021.08 1020.80 1020.56 1020.32 1020.12 1019.92 1019.68 1019.40 1019.12 1019.00 1018.64 1018.40 1018.16 1017.96 1017.68 1017.48 1017.04 1016.44 1015.92 1015.48 1015.04 1014.56 1014.12 1013.48 1012.96 1012.40 1011.68 1011.20 1010.60 1009.88 1009.40 1009.24 1009.36 1009.40 1009.56 1009.44
1023.64 1023.68 1023.92 1023.92 1023.80 1023.72 1024.00 1024.12 1023.92 1023.40 1022.48 1022.36 1022.44 1022.72 1022.56 1022.44 1022.72 1023.00 1023.28 1023.16 1022.76 1022.44 1022.36 1022.16 1021.96 1021.88 1021.84 1021.68 1021.44 1021.24 1021.00 1020.76 1020.52 1020.24 1019.96 1019.60 1019.40 1019.16 1018.92 1018.76 1018.52 1018.28 1017.96 1017.36 1016.88 1016.56 1016.20 1015.80 1015.28 1014.80 1014.36 1013.92 1013.36 1012.80 1012.20 1011.52 1010.92 1010.08 1009.28 1009.12 1009.08 1009.12 1009.20
1024.28 1024.16 1024.04 1024.04 1023.96 1023.88 1023.96 1024.12 1024.00 1023.60 1022.96 1022.84 1022.92 1023.16 1023.36 1022.96 1023.12 1023.32 1023.56 1023.48 1023.20 1022.76 1022.64 1022.64 1022.48 1022.36 1022.28 1022.20 1021.96 1021.76 1021.64 1021.32 1021.12 1020.80 1020.48 1020.08 1019.80 1019.52 1019.36 1019.20 1019.00 1018.80 1018.44 1017.80 1017.48 1017.08 1016.76 1016.24 1015.92 1015.56 1015.20 1014.76 1014.20 1013.64 1012.96 1012.24 1011.52 1010.96 1010.20 1009.44 1009.04 1008.96 1008.88
1024.92 1024.84 1024.60 1024.40 1024.28 1024.12 1024.16 1024.28 1024.16 1023.84 1023.48 1023.36 1023.52 1023.56 1023.96 1023.72 1023.80 1023.96 1023.96 1023.68 1023.28 1023.08 1022.96 1022.96 1022.88 1022.76 1022.76 1022.64 1022.44 1022.28 1022.08 1021.84 1021.64 1021.36 1021.00 1020.64 1020.32 1019.96 1019.68 1019.60 1019.48 1019.12 1018.60 1018.24 1018.00 1017.64 1017.20 1016.80 1016.60 1016.24 1015.84 1015.36 1014.88 1014.36 1013.80 1013.16 1012.52 1011.68 1011.00 1010.32 1009.64 1009.16 1009.00
1025.44 1025.40 1025.24 1025.12 1025.00 1024.88 1024.84 1024.76 1024.52 1024.32 1024.20 1024.08 1024.28 1024.20 1024.16 1024.08 1023.96 1024.04 1024.08 1023.96 1023.68 1023.52 1023.36 1023.32 1023.24 1023.12 1023.16 1023.08 1022.96 1022.72 1022.56 1022.28 1022.08 1021.80 1021.44 1021.08 1020.76 1020.44 1020.08 1019.84 1019.52 1019.04 1018.72 1018.56 1018.24 1017.92 1017.60 1017.32 1017.08 1016.72 1016.28 1015.76 1015.36 1014.96 1014.44 1013.88 1013.20 1012.48 1011.68 1010.84 1010.12 1009.56 1009.04
1025.28 1025.60 1025.64 1025.44 1025.36 1025.32 1025.28 1025.20 1025.00 1024.76 1024.56 1024.52 1024.76 1024.76 1024.52 1024.32 1024.08 1023.88 1023.84 1023.88 1023.96 1023.80 1023.68 1023.64 1023.48 1023.44 1023.36 1023.36 1023.16 1023.00 1022.88 1022.64 1022.48 1022.12 1021.84 1021.52 1021.16 1020.76 1020.40 1020.04 1019.56 1019.16 1019.00 1018.88 1018.52 1018.20 1017.88 1017.68 1017.44 1017.00 1016.64 1016.20 1015.76 1015.32 1014.88 1014.24 1013.68 1013.20 1012.64 1011.92 1011.08 1010.24 1009.56
1025.36 1025.72 1025.80 1025.72 1025.64 1025.60 1025.48 1025.40 1025.24 1024.96 1024.72 1024.56 1024.68 1024.80 1024.84 1024.24 1024.04 1024.00 1023.96 1023.92 1023.92 1023.96 1023.92 1023.76 1023.72 1023.76 1023.60 1023.52 1023.40 1023.24 1023.08 1022.92 1022.64 1022.40 1022.20 1021.96 1021.60 1021.12 1020.76 1020.28 1019.72 1019.40 1019.24 1019.12 1018.80 1018.44 1018.16 1017.96 1017.60 1017.24 1016.92 1016.48 1016.08 1015.64 1015.12 1014.64 1014.24 1013.76 1013.28 1012.80 1012.08 1011.20 1010.36
Thickness
5311 5313 5315 5317 5319 5321 5323 5323 5324 5325 5326 5326 5328 5329 5329 5329 5329 5330 5332 5331 5332 5334 5332 5333 5334 5334 5335 5331 5331 5334 5333 5332 5330 5328 5329 5329 5328 5329 5329 5328 5325 5329 5346 5352 5343 5344 5346 5344 5347 5348 5343 5341 5339 5337 5337 5333 5331 5333 5331 5332 5334 5332 5329
5297 5299 5300 5302 5304 5306 5308 5310 5311 5312 5314 5315 5317 5317 5318 5319 5319 5320 5322 5323 5324 5325 5323 5323 5325 5325 5325 5321 5320 5324 5323 5321 5320 5319 5321 5321 5318 5320 5320 5318 5317 5318 5327 5338 5336 5332 5332 5332 5335 5338 5336 5332 5331 5329 5328 5325 5323 5323 5323 5324 5325 5325 5323
5283 5284 5286 5288 5289 5291 5293 5295 5296 5298 5300 5302 5304 5305 5306 5306 5307 5309 5311 5313 5314 5315 5313 5313 5317 5317 5314 5311 5311 5314 5313 5310 5310 5310 5311 5312 5310 5310 5311 5309 5307 5307 5312 5321 5324 5321 5320 5321 5324 5328 5327 5324 5323 5321 5319 5318 5316 5315 5315 5316 5316 5316 5316
5269 5271 5272 5274 5276 5278 5279 5281 5282 5283 5285 5286 5289 5290 5293 5294 5296 5298 5300 5302 5303 5304 5303 5303 5307 5308 5305 5301 5301 5304 5304 5302 5301 5300 5299 5301 5300 5300 5301 5300 5297 5298 5301 5305 5309 5311 5311 5310 5312 5317 5318 5314 5313 5311 5309 5309 5307 5306 5306 5307 5306 5306 5306
5255 5257 5259 5261 5262 5264 5265 5266 5267 5268 5269 5271 5273 5276 5279 5281 5284 5287 5289 5291 5291 5291 5291 5292 5295 5298 5295 5291 5292 5293 5295 5293 5290 5289 5288 5289 5291 5290 5291 5289 5286 5287 5289 5289 5294 5300 5301 5298 5300 5305 5307 5305 5303 5301 5298 5298 5298 5297 5297 5297 5296 5296 5295
5241 5244 5245 5246 5247 5248 5249 5250 5251 5253 5254 5257 5260 5262 5266 5268 5271 5275 5277 5278 5280 5279 5280 5281 5284 5286 5284 5281 5282 5284 5286 5284 5280 5278 5278 5279 5280 5280 5278 5277 5275 5276 5277 5277 5280 5285 5286 5286 5288 5291 5294 5295 5294 5291 5287 5288 5287 5286 5287 5287 5286 5285 5286
5226 5228 5230 5231 5233 5233 5235 5236 5237 5240 5242 5244 5247 5248 5251 5255 5258 5261 5263 5265 5266 5267 5268 5269 5271 5273 5273 5271 5271 5273 5275 5274 5270 5269 5268 5269 5270 5269 5266 5265 5264 5265 5264 5265 5267 5269 5271 5274 5275 5277 5280 5282 5281 5280 5280 5280 5278 5276 5276 5276 5275 5275 5275
5212 5214 5215 5217 5219 5220 5221 5223 5225 5227 5228 5229 5232 5235 5238 5241 5243 5246 5249 5250 5253 5254 5256 5257 5258 5260 5261 5260 5259 5261 5263 5263 5260 5258 5258 5260 5259 5257 5255 5254 5253 5253 5252 5253 5255 5256 5259 5261 5262 5265 5268 5268 5267 5269 5273 5272 5270 5267 5265 5264 5263 5263 5263
5199 5201 5202 5202 5204 5205 5207 5208 5210 5211 5212 5215 5218 5222 5224 5227 5230 5232 5235 5237 5240 5241 5243 5244 5245 5246 5248 5247 5247 5248 5249 5250 5250 5247 5247 5249 5249 5246 5244 5243 5242 5241 5241 5242 5243 5245 5248 5248 5249 5255 5258 5258 5259 5262 5263 5260 5255 5255 5255 5253 5249 5248 5250
5186 5187 5188 5188 5188 5190 5191 5193 5194 5195 5198 5202 5205 5208 5211 5215 5217 5218 5221 5223 5225 5226 5227 5229 5230 5232 5234 5234 5234 5235 5235 5237 5237 5236 5236 5237 5237 5235 5233 5233 5232 5231 5231 5232 5233 5236 5238 5236 5239 5246 5249 5250 5252 5252 5249 5246 5245 5243 5242 5238 5233 5234 5238
5173 5173 5174 5175 5174 5175 5176 5178 5179 5181 5185 5189 5192 5195 5198 5200 5202 5203 5205 5206 5207 5208 5210 5212 5214 5216 5217 5218 5219 5219 5221 5222 5223 5223 5223 5224 5225 5224 5223 5222 5222 5222 5223 5223 5223 5226 5228 5227 5231 5238 5240 5239 5241 5240 5237 5236 5235 5232 5228 5225 5222 5225 5229
5160 5160 5161 5162 5160 5161 5163 5164 5165 5168 5172 5176 5178 5180 5184 5186 5187 5188 5189 5189 5188 5190 5193 5195 5197 5198 5199 5200 5201 5202 5204 5205 5207 5209 5209 5210 5211 5212 5212 5212 5212 5213 5214 5214 5214 5215 5218 5220 5223 5228 5228 5229 5231 5229 5224 5222 5221 5220 5219 5216 5214 5217 5222
5148 5149 5148 5149 5148 5149 5150 5151 5152 5155 5159 5162 5164 5167 5171 5173 5173 5173 5173 5173 5173 5175 5176 5179 5181 5183 5184 5185 5185 5186 5187 5188 5190 5192 5193 5194 5196 5198 5200 5201 5201 5202 5203 5204 5205 5205 5208 5213 5214 5214 5217 5220 5219 5213 5208 5205 5208 5209 5207 5204 5205 5209 5211
5138 5137 5136 5136 5135 5136 5137 5138 5140 5143 5147 5150 5152 5154 5158 5161 5160 5158 5158 5159 5160 5161 5163 5164 5166 5168 5170 5170 5170 5170 5170 5172 5174 5176 5178 5180 5182 5184 5187 5188 5189 5191 5192 5193 5194 5193 5198 5204 5202 5201 5206 5207 5201 5198 5197 5196 5197 5197 5193 5191 5194 5196 5193
5127 5126 5125 5124 5122 5123 5124 5126 5128 5132 5135 5138 5140 5143 5147 5149 5148 5145 5145 5147 5147 5149 5150 5151 5152 5152 5153 5153 5154 5154 5154 5156 5159 5162 5165 5168 5170 5172 5173 5175 5177 5180 5180 5181 5181 5181 5185 5191 5191 5189 5192 5192 5187 5185 5187 5188 5187 5184 5178 5176 5179 5179 5177
5117 5115 5114 5112 5111 5112 5113 5115 5117 5120 5124 5127 5130 5132 5134 5136 5137 5135 5134 5135 5137 5138 5139 5139 5137 5136 5137 5138 5138 5139 5139 5142 5145 5148 5151 5155 5158 5160 5161 5163 5166 5168 5168 5169 5169 5170 5172 5177 5180 5178 5177 5178 5176 5174 5175 5175 5172 5168 5164 5161 5162 5165 5166
5108 5107 5105 5103 5103 5103 5103 5105 5107 5110 5114 5117 5119 5122 5123 5125 5127 5125 5124 5125 5127 5128 5128 5126 5123 5123 5124 5125 5125 5126 5128 5130 5132 5135 5139 5142 5145 5148 5150 5154 5156 5156 5156 5158 5160 5160 5160 5164 5168 5168 5168 5168 5166 5164 5164 5160 5157 5157 5156 5152 5150 5154 5158
5099 5099 5098 5096 5095 5095 5095 5096 5098 5101 5105 5107 5110 5112 5114 5115 5116 5116 5116 5117 5119 5118 5116 5113 5111 5111 5112 5113 5115 5116 5118 5119 5120 5123 5127 5130 5134 5138 5140 5143 5146 5146 5148 5149 5149 5149 5150 5152 5155 5157 5158 5159 5157 5156 5155 5152 5150 5153 5150 5142 5142 5149 5150
5091 5091 5091 5090 5088 5088 5088 5088 5090 5092 5095 5098 5100 5102 5104 5106 5107 5106 5107 5109 5108 5106 5103 5102 5101 5101 5101 5102 5104 5106 5109 5111 5112 5114 5117 5120 5122 5124 5126 5130 5132 5132 5134 5136 5138 5140 5141 5140 5143 5145 5146 5147 5147 5146 5146 5147 5148 5146 5141 5136 5139 5143 5139
5083 5083 5083 5083 5082 5082 5081 5081 5082 5083 5086 5088 5090 5093 5095 5096 5096 5098 5099 5100 5097 5094 5092 5092 5091 5090 5090 5091 5094 5097 5100 5102 5102 5103 5105 5106 5106 5108 5112 5115 5116 5116 5117 5121 5125 5128 5129 5129 5132 5133 5133 5135 5137 5136 5135 5138 5141 5139 5135 5133 5133 5132 5129
5076 5076 5077 5077 5076 5075 5075 5074 5074 5074 5077 5079 5081 5084 5086 5086 5088 5090 5091 5088 5086 5083 5081 5081 5080 5080 5079 5079 5082 5085 5088 5089 5090 5090 5090 5090 5089 5093 5097 5100 5100 5101 5103 5106 5111 5115 5118 5120 5121 5122 5122 5123 5125 5126 5125 5126 5129 5131 5130 5127 5125 5123 5122
5069 5069 5070 5070 5070 5069 5068 5068 5067 5066 5068 5072 5074 5075 5078 5079 5082 5082 5079 5075 5074 5072 5070 5069 5068 5069 5069 5068 5070 5072 5072 5074 5075 5074 5074 5075 5076 5079 5081 5082 5085 5088 5090 5093 5097 5100 5104 5108 5110 5111 5112 5113 5113 5116 5116 5113 5116 5121 5122 5120 5119 5116 5115
5062 5063 5063 5063 5064 5063 5062 5060 5060 5060 5062 5064 5066 5068 5070 5072 5072 5070 5065 5062 5061 5059 5057 5056 5056 5057 5058 5058 5058 5059 5059 5059 5059 5058 5058 5061 5062 5063 5064 5067 5070 5073 5076 5079 5083 5085 5088 5093 5097 5098 5101 5102 5103 5105 5105 5102 5103 5108 5110 5111 5111 5109 5108
5059 5058 5057 5057 5057 5056 5055 5054 5052 5053 5055 5056 5058 5059 5061 5061 5060 5056 5052 5049 5047 5045 5044 5043 5044 5045 5046 5046 5045 5046 5044 5044 5043 5042 5043 5044 5045 5046 5048 5050 5053 5056 5059 5063 5066 5070 5074 5077 5081 5084 5086 5089 5090 5092 5093 5093 5093 5096 5098 5100 5101 5101 5099
5054 5052 5051 5050 5049 5048 5047 5045 5043 5045 5046 5047 5049 5051 5050 5047 5045 5042 5038 5034 5033 5032 5030 5030 5031 5032 5032 5031 5030 5031 5030 5028 5027 5026 5026 5027 5027 5029 5030 5032 5034 5036 5040 5043 5047 5052 5057 5061 5065 5068 5071 5074 5076 5077 5079 5081 5081 5083 5086 5087 5089 5089 5088
5048 5046 5045 5044 5042 5040 5039 5037 5036 5037 5037 5038 5041 5041 5037 5033 5033 5030 5024 5020 5019 5018 5016 5016 5016 5016 5015 5015 5014 5014 5014 5013 5012 5011 5010 5010 5011 5011 5012 5012 5014 5016 5018 5021 5026 5030 5034 5040 5045 5049 5054 5058 5061 5064 5065 5067 5068 5069 5071 5074 5075 5075 5075
5041 5040 5038 5036 5035 5033 5031 5029 5028 5028 5027 5030 5032 5030 5025 5023 5022 5017 5010 5007 5006 5004 5002 5001 5000 4999 4999 4998 4997 4997 4997 4996 4996 4995 4994 4993 4993 4993 4994 4994 4994 4996 4998 5000 5004 5007 5012 5017 5023 5028 5035 5040 5046 5050 5053 5054 5055 5056 5058 5061 5062 5062 5063
5035 5033 5030 5029 5027 5025 5024 5022 5019 5017 5017 5020 5021 5017 5013 5013 5011 5003 4996 4994 4992 4990 4988 4987 4985 4985 4984 4982 4981 4981 4980 4979 4978 4978 4977 4976 4976 4976 4977 4977 4978 4979 4981 4982 4984 4988 4993 4998 5003 5009 5015 5021 5027 5035 5040 5041 5042 5043 5046 5047 5048 5049 5052
5029 5026 5022 5020 5019 5018 5016 5013 5009 5007 5008 5011 5009 5004 5002 5002 4997 4990 4984 4982 4980 4977 4976 4975 4973 4971 4970 4968 4967 4966 4965 4964 4962 4962 4961 4960 4960 4961 4962 4962 4963 4963 4964 4965 4967 4971 4975 4979 4984 4989 4995 5000 5007 5015 5022 5027 5029 5032 5034 5034 5034 5037 5041
5021 5019 5015 5012 5011 5008 5005 5002 4998 4997 5000 5001 4996 4991 4990 4988 4984 4977 4972 4969 4967 4966 4965 4964 4963 4960 4958 4956 4955 4954 4953 4951 4950 4949 4949 4947 4946 4946 4947 4947 4947 4948 4948 4949 4952 4955 4959 4962 4966 4971 4975 4980 4986 4993 5000 5007 5012 5017 5021 5022 5022 5025 5028
5011 5010 5007 5004 5002 4999 4994 4990 4988 4988 4990 4989 4984 4979 4977 4975 4971 4965 4961 4958 4957 4957 4956 4954 4953 4950 4947 4945 4943 4942 4940 4939 4937 4936 4936 4935 4933 4932 4932 4932 4932 4932 4933 4935 4937 4939 4942 4945 4949 4953 4957 4961 4966 4971 4978 4985 4991 4997 5004 5008 5011 5014 5016
5001 5000 4998 4996 4993 4990 4986 4981 4978 4978 4978 4977 4973 4967 4963 4962 4959 4955 4951 4949 4948 4948 4947 4943 4941 4940 4936 4933 4932 4930 4927 4926 4925 4923 4923 4922 4922 4920 4919 4917 4917 4916 4917 4920 4923 4924 4927 4929 4932 4936 4939 4943 4948 4952 4958 4965 4969 4976 4984 4990 4995 5000 5003
4990 4989 4988 4985 4983 4980 4976 4972 4969 4967 4966 4964 4961 4957 4953 4951 4949 4944 4941 4941 4940 4940 4938 4934 4932 4929 4926 4923 4920 4918 4915 4913 4912 4910 4910 4909 4908 4908 4906 4904 4902 4903 4904 4906 4907 4909 4911 4913 4916 4919 4922 4927 4931 4935 4940 4945 4950 4956 4964 4971 4977 4983 4988
4981 4979 4977 4974 4971 4968 4965 4962 4959 4957 4955 4952 4949 4947 4945 4943 4941 4938 4935 4933 4932 4931 4929 4926 4923 4919 4915 4912 4909 4905 4903 4901 4898 4896 4895 4895 4893 4894 4892 4891 4890 4891 4892 4892 4892 4894 4897 4898 4900 4903 4907 4911 4915 4919 4924 4928 4933 4938 4945 4952 4959 4965 4971
4975 4971 4967 4964 4961 4958 4954 4952 4949 4947 4946 4944 4941 4938 4937 4936 4936 4934 4931 4928 4926 4923 4920 4917 4914 4910 4905 4901 4897 4893 4890 4888 4885 4882 4881 4880 4879 4879 4878 4878 4878 4879 4878 4878 4878 4880 4882 4883 4885 4888 4891 4896 4900 4904 4908 4913 4917 4922 4927 4933 4940 4948 4954
4969 4963 4958 4954 4952 4948 4945 4944 4942 4941 4940 4938 4935 4932 4932 4932 4932 4930 4928 4924 4920 4917 4913 4909 4905 4901 4896 4892 4888 4883 4879 4876 4873 4870 4868 4866 4865 4865 4864 4865 4865 4865 4864 4863 4864 4866 4867 4868 4870 4873 4876 4880 4885 4889 4892 4897 4901 4906 4910 4915 4921 4928 4936